Location: Westminster
(33.3626°N, 96.4619°W)
Time: 20:20:53
(UTC+00:00)

Cosmos 1867 - Pass Details

Date: 03 December 2021
Orbit: 773 x 802 km, 65.0° (Epoch: 26 January)

Event Time Altitude Azimuth Distance (km) Brightness Sun altitude
Exits shadow 12:13:49 16° 303° (WNW) 1,993 5.0 -12.4°
Maximum altitude 12:17:24 32° 249° (WSW) 1,341 4.4 -11.7°
Drops below altitude 10° 12:22:10 10° 188° (S) 2,353 6.2 -10.7°
Sets 12:24:47 0° 178° (S) 3,274 7.1 -10.2°
